Home   Weather   Independence   Past weeks

Flag for USA Past Weather in Independence, Missouri, USA — Yesterday and Last 2 Weeks

Now
15 °F

Clear.


Feels Like: 8 °F
Forecast: 10 / 29 °F
Wind: 5 mph from Northeast

Location: Lee's Summit Municipal Airport

Current Time: Dec 9, 2016 at 7:37:38 am

Latest Report: Dec 9, 2016 at 6:53 am


Visibility: 10 mi

Pressure: 30.68 "Hg

Humidity: 74%

Dew Point: 8 °F

Location of IndependenceLocation

Past Weather in Independence — Graph

°F

Independence Temperature Yesterday

Maximum temperature yesterday: 25 °F (at 2:53 pm)
Minimum temperature yesterday: 15 °F (at 6:53 am)
Average temperature yesterday: 20 °F

High & Low Weather Summary for the Past Weeks

 TemperatureHumidityPressure
High63 °F (Nov 28, 11:53 am)100% (Dec 4, 4:53 am)30.71 "Hg (Dec 4, 4:53 am)
Low14 °F (Dec 9, 3:53 am)32% (Nov 28, 1:53 pm)29.15 "Hg (Nov 28, 1:53 pm)
Average39 °F68%30.05 "Hg
* Reported Nov 24 5:53 am — Dec 9 5:53 am, Independence, Weather by CustomWeather, © 2016

Note: Actual official high and low records may vary slightly from our data, if they occured in-between our weather recording intervals... More about our weather records

Advertising

Independence Weather History for the Previous 24 Hours

Scroll right to see more
 ConditionsComfort  
Time TempWeatherWind HumidityBarometerVisibility
5:53 am
Fri, Dec 9
14 °FClear.5 mph77%30.69 "Hg10 mi
4:53 am15 °FClear.3 mph74%30.70 "Hg10 mi
3:53 am14 °FClear.6 mph80%30.71 "Hg10 mi
2:53 am15 °FClear.3 mph74%30.70 "Hg10 mi
1:53 am16 °FClear.3 mph74%30.69 "Hg10 mi
12:53 am17 °FClear.6 mph70%30.68 "Hg10 mi
11:53 pm
Thu, Dec 8
18 °FClear.5 mph68%30.69 "Hg10 mi
10:53 pm18 °FClear.7 mph71%30.69 "Hg10 mi
9:53 pm19 °FClear.5 mph65%30.69 "Hg10 mi
8:53 pm20 °FClear.6 mph65%30.69 "Hg10 mi
7:53 pm20 °FClear.7 mph65%30.69 "Hg10 mi
6:53 pm21 °FClear.7 mph62%30.68 "Hg10 mi
5:53 pm21 °FClear.N/A62%30.67 "Hg10 mi
4:53 pm23 °FSunny.12 mph60%30.66 "Hg10 mi
3:53 pm25 °FSunny.10 mph55%30.65 "Hg10 mi
2:53 pm25 °FSunny.14 mph55%30.64 "Hg10 mi
1:53 pm24 °FSunny.15 mph57%30.64 "Hg10 mi
12:53 pm24 °FSunny.14 mph60%30.64 "Hg10 mi
11:53 am22 °FSunny.15 mph60%30.65 "Hg10 mi
10:53 am20 °FSunny.16 mph62%30.67 "Hg10 mi
9:53 am18 °FSunny.14 mph65%30.66 "Hg10 mi
8:53 am17 °FSunny.16 mph64%30.64 "Hg10 mi
7:53 am15 °FSunny.12 mph67%30.62 "Hg10 mi
Weather by CustomWeather, © 2016

See weather overviewHow to use our weather pages